Location: Mococo
(38.0255°N, 122.1161°W)
Time: 19:42:53
(UTC+00:00)

Cosmos 2227 Rocket - Pass Details

Date: 13 February 2026
Orbit: 836 x 845 km, 71.0° (Epoch: 10 March)

Event Time Altitude Azimuth Distance (km) Brightness Sun altitude
Exits shadow 12:34:13 18° 356° (N) 1,950 4.1 -29.4°
Maximum altitude 12:38:10 47° 63° (ENE) 1,104 3.1 -28.6°
Drops below altitude 10° 12:43:36 10° 137° (SE) 2,459 5.1 -27.5°
Sets 12:46:08 0° 143° (SE) 3,390 5.8 -27.0°
